UAL4J LOWL-LOWS

Flight info

Callsign UAL4J
Flight time 0h 20m
Altitude 12000
Route LIDSI DCT MATIG
Aircraft B738/M-SDE2E3FGHIRWXY/LB1

Departure

Time 2026-04-16 07:35
Airport Linz-Hörsching Airport (LOWL)

Arrival

Time 2026-04-16 07:55
Airport Salzburg Airport (LOWS)
Time Latitude Longitude Altitude Speed Heading
2026-04-16 07:34 48.23389 14.20707 954 ft 0 kts 267°
2026-04-16 07:34 48.23387 14.20647 955 ft 13 kts 266°
2026-04-16 07:35 48.23375 14.20356 959 ft 60 kts 265°
2026-04-16 07:35 48.23330 14.19257 970 ft 143 kts 268°
2026-04-16 07:35 48.23272 14.17455 1347 ft 182 kts 266°
2026-04-16 07:35 48.23220 14.15599 2520 ft 177 kts 269°
2026-04-16 07:36 48.23235 14.13756 3369 ft 178 kts 273°
2026-04-16 07:36 48.23279 14.11840 4056 ft 188 kts 270°
2026-04-16 07:36 48.23151 14.09661 4544 ft 214 kts 263°
2026-04-16 07:36 48.22963 14.07337 5291 ft 227 kts 265°
2026-04-16 07:37 48.22847 14.04889 6153 ft 235 kts 268°
2026-04-16 07:37 48.22759 14.02336 6920 ft 248 kts 268°
2026-04-16 07:37 48.22670 13.99686 7663 ft 260 kts 268°
2026-04-16 07:37 48.22571 13.96896 8490 ft 270 kts 268°
2026-04-16 07:38 48.22466 13.94004 9465 ft 273 kts 268°
2026-04-16 07:38 48.22358 13.91132 10188 ft 279 kts 266°
2026-04-16 07:38 48.22030 13.88171 10809 ft 281 kts 256°
2026-04-16 07:38 48.21359 13.85309 11430 ft 287 kts 250°
2026-04-16 07:39 48.20573 13.82494 12024 ft 289 kts 249°
2026-04-16 07:39 48.19770 13.79605 12221 ft 294 kts 250°
2026-04-16 07:39 48.18993 13.76658 12218 ft 290 kts 251°
2026-04-16 07:39 48.18251 13.73757 12213 ft 290 kts 251°
2026-04-16 07:40 48.17513 13.70835 12213 ft 290 kts 251°
2026-04-16 07:40 48.16759 13.67857 12214 ft 290 kts 251°
2026-04-16 07:40 48.16005 13.64896 12213 ft 291 kts 251°
2026-04-16 07:40 48.15246 13.61924 12213 ft 291 kts 251°
2026-04-16 07:41 48.14510 13.59036 12212 ft 290 kts 251°
2026-04-16 07:41 48.13746 13.56035 12211 ft 291 kts 251°
2026-04-16 07:41 48.12991 13.53084 12211 ft 291 kts 251°
2026-04-16 07:41 48.12237 13.50137 12035 ft 291 kts 251°
2026-04-16 07:42 48.11490 13.47253 11715 ft 283 kts 251°
2026-04-16 07:42 48.10784 13.44536 11421 ft 272 kts 251°
2026-04-16 07:42 48.10099 13.41892 11118 ft 261 kts 251°
2026-04-16 07:42 48.09444 13.39346 10831 ft 251 kts 251°
2026-04-16 07:43 48.08821 13.36929 10533 ft 240 kts 251°
2026-04-16 07:43 48.08221 13.34609 10200 ft 233 kts 251°
2026-04-16 07:43 48.07634 13.32340 9886 ft 224 kts 251°
2026-04-16 07:43 48.07077 13.30187 9554 ft 216 kts 251°
2026-04-16 07:44 48.06536 13.28097 9235 ft 205 kts 251°
2026-04-16 07:44 48.06017 13.26082 8890 ft 196 kts 251°
2026-04-16 07:44 48.05527 13.24176 8554 ft 188 kts 251°
2026-04-16 07:44 48.05071 13.22405 8217 ft 174 kts 251°
2026-04-16 07:45 48.04641 13.20719 7877 ft 163 kts 251°
2026-04-16 07:45 48.04231 13.19112 7555 ft 161 kts 251°
2026-04-16 07:45 48.03822 13.17535 7342 ft 159 kts 250°
2026-04-16 07:45 48.03397 13.15964 7194 ft 158 kts 251°
2026-04-16 07:46 48.02983 13.14360 6974 ft 157 kts 250°
2026-04-16 07:46 48.02570 13.12784 6769 ft 156 kts 250°
2026-04-16 07:46 48.02136 13.11259 6577 ft 158 kts 244°
2026-04-16 07:46 48.01523 13.09819 6379 ft 154 kts 237°
2026-04-16 07:47 48.00908 13.08437 6185 ft 155 kts 240°
2026-04-16 07:47 48.00331 13.07000 5994 ft 154 kts 241°
2026-04-16 07:47 47.99762 13.05605 5791 ft 148 kts 240°
2026-04-16 07:47 47.99195 13.04234 5588 ft 148 kts 240°
2026-04-16 07:48 47.98640 13.02926 5379 ft 145 kts 237°
2026-04-16 07:48 47.97882 13.01879 5165 ft 150 kts 209°
2026-04-16 07:48 47.96791 13.01629 4970 ft 161 kts 179°
2026-04-16 07:48 47.95666 13.01981 4804 ft 161 kts 170°
2026-04-16 07:49 47.94535 13.02359 4680 ft 159 kts 173°
2026-04-16 07:49 47.93411 13.02681 4552 ft 159 kts 173°
2026-04-16 07:49 47.92288 13.03010 4411 ft 159 kts 172°
2026-04-16 07:49 47.91161 13.03359 4254 ft 159 kts 171°
2026-04-16 07:50 47.90066 13.03786 4101 ft 159 kts 168°
2026-04-16 07:50 47.88972 13.04242 3903 ft 158 kts 169°
2026-04-16 07:50 47.87894 13.04676 3697 ft 159 kts 168°
2026-04-16 07:50 47.86792 13.05122 3487 ft 159 kts 168°
2026-04-16 07:51 47.85711 13.05523 3287 ft 158 kts 169°
2026-04-16 07:51 47.84620 13.05898 3092 ft 157 kts 169°
2026-04-16 07:51 47.83534 13.06259 2911 ft 154 kts 170°
2026-04-16 07:51 47.82472 13.06603 2774 ft 155 kts 169°
2026-04-16 07:52 47.81404 13.06941 2646 ft 153 kts 169°
2026-04-16 07:52 47.80340 13.07276 2515 ft 152 kts 169°
2026-04-16 07:52 47.79299 13.07593 2381 ft 151 kts 169°
2026-04-16 07:52 47.78275 13.07897 2361 ft 149 kts 169°
2026-04-16 07:53 47.77215 13.08207 2301 ft 151 kts 169°
2026-04-16 07:53 47.76163 13.08466 2191 ft 149 kts 180°
2026-04-16 07:53 47.75204 13.07957 2113 ft 149 kts 223°
2026-04-16 07:53 47.74744 13.06581 2036 ft 151 kts 267°
2026-04-16 07:54 47.75066 13.05080 1937 ft 153 kts 302°
2026-04-16 07:54 47.75706 13.03768 1819 ft 153 kts 306°
2026-04-16 07:54 47.76377 13.02498 1708 ft 152 kts 310°
2026-04-16 07:54 47.77227 13.01638 1662 ft 146 kts 342°
2026-04-16 07:55 47.78213 13.01086 1496 ft 149 kts 337°
2026-04-16 07:55 47.79155 13.00515 1410 ft 135 kts 332°
2026-04-16 07:55 47.79757 13.00113 1409 ft 66 kts 338°
2026-04-16 07:55 47.80119 12.99898 1409 ft 34 kts 337°
2026-04-16 07:56 47.80262 12.99671 1412 ft 27 kts 239°
2026-04-16 07:56 47.80129 12.99626 1414 ft 19 kts 159°
2026-04-16 07:56 47.80004 12.99698 1415 ft 18 kts 159°
2026-04-16 07:56 47.79877 12.99775 1415 ft 21 kts 157°
2026-04-16 07:57 47.79720 12.99879 1416 ft 25 kts 156°
2026-04-16 07:57 47.79562 12.99985 1420 ft 22 kts 157°
2026-04-16 07:57 47.79431 13.00068 1418 ft 16 kts 160°
2026-04-16 07:57 47.79378 13.00061 1420 ft 14 kts 211°
2026-04-16 07:58 47.79336 12.99996 1426 ft 8 kts 231°
2026-04-16 07:58 47.79305 12.99959 1426 ft 8 kts 211°
2026-04-16 07:58 47.79262 12.99917 1426 ft 1 kts 228°
2026-04-16 07:58 47.79251 12.99874 1426 ft 3 kts 278°
2026-04-16 07:59 47.79257 12.99831 1426 ft 0 kts 282°